Regional Weather Roundup
Issued by NWS

Home | Current Version | Previous Version | Graphics & Text | Print | Product List | Glossary On
Versions: 1 2 3 4 5 6 7 8 9 10 11 12 13 14 15 16 17 18 19 20 21 22 23 24 25 26 27 28 29 30 31 32 33 34 35 36 37 38 39 40 41 42 43 44 45 46 47 48 49 50
000
ASUS43 KMKX 221321
RWRWI

WISCONSIN REGIONAL WEATHER ROUNDUP
NATIONAL WEATHER SERVICE MILWAUKEE/SULLIVAN WI
800 AM CDT MON MAY 22 2017

NOTE: "FAIR" INDICATES FEW OR NO CLOUDS BELOW 12,000 FEET WITH NO
SIGNIFICANT WEATHER AND/OR OBSTRUCTIONS TO VISIBILITY.

WIZ001-002-006>008-014>016-023>028-221400-
NORTHWEST WISCONSIN

CITY           SKY/WX    TMP DP  RH WIND       PRES   REMARKS
SUPERIOR ARPT  NOT AVBL
ASHLAND        CLOUDY    48  43  82 SW10      29.78S
HAYWARD        CLOUDY    46  43  89 SW6       29.80F
SIREN          PTSUNNY   47  44  88 W10       29.82F
CUMBERLAND     SUNNY     46  43  87 W8        29.83F
RICE LAKE      MOSUNNY   47  43  86 W10       29.86S
CHETEK         MOSUNNY   47  44  89 SW8       29.85S
LADYSMITH      CLOUDY    47  45  93 SW8       29.85S
EAU CLAIRE     SUNNY     49  44  83 SW9       29.86F
MENOMONIE      SUNNY     51  45  81 SW6       29.87F
NEW RICHMOND   SUNNY     49  44  81 SW10      29.85F
OSCEOLA        SUNNY     50  44  79 W7        29.87F
$$

WIZ003>005-009-010-017-018-221400-
NORTH CENTRAL WISCONSIN

CITY           SKY/WX    TMP DP  RH WIND       PRES   REMARKS
MANITOWISH WTR DRIZZLE   43  43 100 W8        29.79S
ARBOR VITAE    CLOUDY    44  42  93 W8        29.79S
WOODRUFF       CLOUDY    44  42  93 W8        29.79S
RHINELANDER    CLOUDY    46  43  89 W12G20    29.82R
EAGLE RIVER    DRIZZLE   44  43  97 W14       29.80R
LAND O LAKES   CLOUDY    45  42  88 W8        29.80S
PHILLIPS       CLOUDY    43  43 100 SW7       29.81S
TOMAHAWK       CLOUDY    44  41  90 SW6       29.83S
MEDFORD        CLOUDY    44  42  93 W7        29.84F
MERRILL        CLOUDY    45  43  94 W7        29.85S
$$

WIZ029-030-035-036-043>047-221400-
CENTRAL WISCONSIN

CITY           SKY/WX    TMP DP  RH WIND       PRES   REMARKS
WAUSAU         CLOUDY    46  42  86 W12       29.85S
MOSINEE        CLOUDY    46  45  93 W10       29.88S
MARSHFIELD     SUNNY     47  42  83 W9        29.87S
STEVENS POINT  CLOUDY    45  40  85 W13G18    29.89S
WAUPACA        SUNNY     51  42  71 W14G20    29.90S
WAUTOMA        MOSUNNY   50  42  74 W13G20    29.92S
WISC RAPIDS    SUNNY     50  42  74 W12       29.91S
CAMP DOUGLAS   MOSUNNY   50  43  76 W9        29.92S
$$

WIZ011>013-019>022-031-037>040-048>050-221400-
NORTHEAST WISCONSIN

CITY           SKY/WX    TMP DP  RH WIND       PRES   REMARKS
ANTIGO         CLOUDY    43  42  95 W13       29.84S
SHAWANO        CLOUDY    50  43  78 SW8       29.87R
OCONTO         CLOUDY    49  42  75 W15G22    29.85S
STURGEON BAY   CLOUDY    48  43  81 W12G22    29.85R
GREEN BAY      CLOUDY    50  44  80 W16G22    29.88R
MANITOWOC      PTSUNNY   52  40  63 W15G22    29.90R
APPLETON       PTSUNNY   50  39  66 W15G22      N/A
CLINTONVILLE   CLOUDY    48  41  76 W10G17    29.88R
OSHKOSH        SUNNY     50  41  71 W14G20    29.90R
$$

WIZ032>034-041-042-053>061-221400-
SOUTHWEST WISCONSIN

CITY           SKY/WX    TMP DP  RH WIND       PRES   REMARKS
LA CROSSE      SUNNY     53  44  71 S10       29.91F
SPARTA         PTSUNNY   51  44  77 SW6       29.93S
VIROQUA        SUNNY     49  43  80 N7        29.93S
BOSCOBEL       SUNNY     51  43  74 SW6       29.96F
PRAIRIE DU CHI CLOUDY    50  43  75 S5        29.96S
PLATTEVILLE    SUNNY     50  48  92 S9        29.98F
$$

WIZ056-057-062-063-064-067-068-221400-
SOUTH CENTRAL WISCONSIN

CITY           SKY/WX    TMP DP  RH WIND       PRES   REMARKS
REEDSBURG      SUNNY     49  43  79 SW7       29.95R
BARABOO/DELLS  MOSUNNY   49  42  74 SW8       29.95R
LONE ROCK      SUNNY     51  43  74 SW5       29.96S
MINERAL POINT  SUNNY     52  46  82 SW7       29.97S
MADISON        MOSUNNY   51  42  71 SW8       29.97R
MIDDLETON      SUNNY     53  43  69 W9        29.97S
WATERTOWN      SUNNY     50  44  78 SW10      29.96R
MONROE         SUNNY     52  43  71 SW10      29.99S
JANESVILLE     SUNNY     52  45  76 SW12G17   29.99R
$$

WIZ051-052-058>065-066-070>072-221400-
SOUTHEAST WISCONSIN

CITY           SKY/WX    TMP DP  RH WIND       PRES   REMARKS
MILWAUKEE      MOSUNNY   53  42  66 SW14      29.97S
WAUKESHA       SUNNY     48  41  76 W12       29.98R
MILWAUKEE/TIMM SUNNY     52  39  62 W12G21    29.97R
RACINE         SUNNY     52  42  69 W9        30.00R
KENOSHA        SUNNY     53  43  68 W13       30.00R
FOND DU LAC    SUNNY     51  40  65 W9        29.92S
SHEBOYGAN      SUNNY     50  43  77 W15G22    29.92R
WEST BEND      SUNNY     50  41  71 W15G24    29.94R
JUNEAU         MOSUNNY   49  42  78 SW12      29.96R
$$

LSZ147-162-221400-
LAKE SUPERIOR

STATION/POSITION TIME  TEMP    WIND        PRES    WAVE
                       AIR SEA DIR/SP/G            HT/PER
                 (UTC) (F)     (DEG/KT/KT) (MB)    (FT/S)
W MID LAKE BUOY  1250   41 37  240/ 14/ 16 1007.2R   2/ 4
DEVILS ISLAND    1300   45     230/ 17/ 19 1007.5F
PORT WING        1130   47     230/  7/ 12 1008.1S
SAXON HARBOR     1230   48     210/  5/ 11 1008.5R
$$

LMZ867-665-643>646-221400-
LAKE MICHIGAN

STATION/POSITION TIME  TEMP    WIND        PRES    WAVE
                       AIR SEA DIR/SP/G            HT/PER
                 (UTC) (F)     (DEG/KT/KT) (MB)    (FT/S)
CHAMBERS ISLAND  1240   47     210/  6/ 16 1009.8R
N MID LAKE BUOY  1250   42 38  210/ 14/ 17 1010.5R   3/ 5
NORTHPORT PIER   1240   47     230/  5/ 12 1009.8R
KEWAUNEE LAKESHO 1300   49     260/ 10/ 17 1011.1
SHEBOYGAN LAKESH 1300   50     270/ 14/ 17 1013.2R
PORT WASHINGTON  1240   53     270/  7/ 15 1014.6S
MILWAUKEE LAKESH 1300   51     250/ 11/ 16   N/A
S MID LAKE BUOY  1250   47 44  240/ 14/ 16 1016.3R   2/ 4
KENOSHA   LAKESH 1300   53     250/  8/ 17 1015.9
$$

TC  - TEMPERATURE IN CELSIUS
VSB - VISIBILITY IN STATUTE MILES
WCI - WIND CHILL INDEX
HX  - HEAT INDEX




USA.gov is the U.S. government's official web portal to all federal, state and local government web resources and services.